Regional Weather Roundup
Issued by NWS Jackson, KY

Home | Current Version | Previous Version | Graphics & Text | Print | Product List | Glossary On
Versions: 1 2 3 4 5 6 7 8 9 10 11 12 13 14 15 16 17 18 19 20 21 22 23 24 25 26 27 28 29 30 31 32 33 34 35 36 37 38 39 40 41 42 43 44 45 46 47 48 49 50
299
ASUS43 KJKL 240910
RWRJKL

EAST KENTUCKY HOURLY WEATHER ROUNDUP
NATIONAL WEATHER SERVICE JACKSON KY
500 AM EDT MON JUL 24 2017

NOTE: "FAIR" INDICATES FEW OR NO CLOUDS BELOW 12,000 FEET WITH
NO SIGNIFICANT WEATHER AND/OR OBSTRUCTIONS TO VISIBILITY.

* THESE REPORTS ARE NOT UNDER NWS QUALITY CONTROL AND MAY NOT
  REPORT WEATHER SUCH AS PRECIPITATION AND FOG.

KYZ079-080-083-085-087-088-110-112-115-119-120-241000
...EASTERN KENTUCKY...

CITY           SKY/WX    TMP DP  RH WIND       PRES   REMARKS
JACKSON        CLOUDY    70  69  97 CALM      29.92S FOG
LONDON         CLOUDY    69  67  93 CALM      29.94R
SOMERSET*      PTCLDY    68  68 100 CALM      29.94S
WILLIAMSBURG*  CLOUDY    66  66 100 S6        29.94S VSB<1/4
MIDDLESBORO*   CLOUDY    69  69 100 CALM      29.96R
PIKE CO APT*   MOCLDY    70  70 100 CALM      29.92S
BIG SANDY APT* CLOUDY    73  72  97 SW3       29.91R
MOREHEAD APT*  SUNNY     70  68  94 SW3       29.91R
$$

KYZ035-036-041-042-044-050-067-078-099-241000
...CENTRAL KENTUCKY...

CITY           SKY/WX    TMP DP  RH WIND       PRES   REMARKS
MT STERLING*   CLEAR     68  68 100 W3        29.91S
FLEMING/MASON* PTCLDY    68  67  97 SW5       29.90R
DANVILLE*      MOCLDY    68  68 100 SW3       29.92S
LEXINGTON      CLEAR     71  68  90 W3        29.90S
FRANKFORT      CLEAR     71  68  90 CALM      29.88R
LOUISVILLE     PTCLDY    76  72  87 W5        29.88R
LEBANON*         N/A     70  70 100 S5        29.91S FOG
GLASGOW*       CLOUDY    70  70 100 CALM      29.91S
BOWLING GREEN  CLEAR     73  71  93 S3        29.90S
$$

KYZ091>093-OHZ055-061-077-WVZ005-015-034-035-042-241000
...SOUTHERN OHIO/WEST VIRGINIA...

CITY           SKY/WX    TMP DP  RH WIND       PRES   REMARKS
COVINGTON      PTCLDY    69  69 100 SW5       29.86S
COLUMBUS       CLEAR     67  67 100 S3        29.83R
DAYTON         CLEAR     69  67  93 SW6       29.85S
WILMINGTON     CLEAR     67  67 100 SW6       29.85S
HUNTINGTON     CLEAR     71  68  90 SW5       29.86R
CHARLESTON     PTCLDY    73  69  87 SW9       29.86R
PINEVILLE*     CLOUDY    69  68  97 MISG      29.98R FOG
BECKLEY        CLOUDY    67  65  93 SW8       29.94S
BLUEFIELD      CLOUDY    65  64  97 W8        29.98R
LOGAN CO APT*  CLOUDY    70  70 100 CALM      29.91R
$$

VAZ002-007-008-TNZ017-027-036-066-071-241000
...SOUTHWEST VIRGINIA/EAST TENNESSEE...

CITY           SKY/WX    TMP DP  RH WIND       PRES   REMARKS
WISE*          MOCLDY    68  68 100 W7        30.01S
JONESVILLE*    CLOUDY    68  68 100 CALM      29.99R
ABINGDON*      CLOUDY    70  70  98 W9        29.98S
BRISTOL        CLOUDY    70  67  90 SW3       29.96R
MORRISTOWN*    CLOUDY    70  68  94 CALM      29.94R
SEVIERVILLE*   SUNNY     70  66  88 CALM      29.93R
KNOXVILLE      CLOUDY    70  68  93 SW5       29.92S
LAFOLLETTE*    CLOUDY    70  68  94 CALM      29.98S
OAK RIDGE      CLOUDY    70  68  93 CALM      29.95S
CROSSVILLE     MOCLDY    68  66  93 CALM      29.98S
NASHVILLE      CLOUDY    71  68  90 S5        29.90F
$$

...KEY TO REMARKS...
VSB - VISIBILITY IN MILES
WCI - WIND CHILL INDEX
HX  - HEAT INDEX

$$




USA.gov is the U.S. government's official web portal to all federal, state and local government web resources and services.